Location: Firestone Park
(33.9631°N, 118.2326°W)
Time: 08:43:04
(UTC+00:00)

Cosmos-2242 - Pass Details

Date: 13 June 2024
Orbit: 579 x 604 km, 82.5° (Epoch: 15 July)

Event Time Altitude Azimuth Distance (km) Brightness Sun altitude
Rises 12:00:19 0° 354° (N) 2,860 6.9 -8.0°
Reaches altitude 10° 12:02:33 10° 355° (N) 1,950 6.0 -7.6°
Maximum altitude 12:06:52 86° 85° (E) 605 3.1 -6.9°
Drops below altitude 10° 12:11:08 10° 173° (S) 1,922 5.3 -6.2°
Sets 12:13:18 0° 174° (S) 2,815 6.2 -5.8°
